Location: Sawmill Trailhead
(33.5800°N, 116.4497°W)
Time: 13:57:03
(UTC-07:00)

Amateur Radio Satellites - All Passes

Search period start: 19 April 2014 13:27
Search period end: 20 April 2014 13:27
Location: Sawmill Trailhead, 33.5800°N, 116.4497°W

Satellite Date Start Highest point End Downlink Frequencies (MHz)
Time Altitude Azimuth
Uribyol 2 19 Apr 13:35:36 13:40:24 40° 72° (ENE) 13:45:12 436.500 FM
PANSAT 19 Apr 13:49:35 13:50:37 11° 204° (SSW) 13:51:39 not established
Gurwin Techsat 1B 19 Apr 14:09:09 14:13:20 24° 68° (ENE) 14:17:31 435.225 FM
OPAL 19 Apr 14:11:50 14:12:47 10° 93° (E) 14:13:43 ?
JAS-1B 19 Apr 14:13:20 14:17:18 15° 63° (ENE) 14:20:58 435.800 - 435.900 CW/SSB
AO-27 19 Apr 14:15:22 14:20:34 82° 257° (WSW) 14:25:46 436.795 MHz FM
ISS 19 Apr 14:17:33 14:20:36 34° 131° (SE) 14:23:41 145.800 FM
RS-15 19 Apr 14:19:02 14:27:23 24° 39° (NE) 14:35:47 29.354 - 29.394 USB, Beacon 29.352 USB
ITAMSAT 1 19 Apr 14:26:08 14:31:17 65° 258° (WSW) 14:36:26 435.822 SSB
Oscar 19 19 Apr 14:31:45 14:36:09 29° 263° (W) 14:40:35 437.125 CW, 437.150 USB
AO-Echo 19 Apr 14:32:24 14:37:40 72° 258° (WSW) 14:42:50 ?
Oscar 16 19 Apr 14:40:38 14:44:32 22° 265° (W) 14:48:28 437.025 USB, Beacon 2401.1428
KITSAT 1 19 Apr 14:43:24 14:46:06 12° 260° (W) 14:48:47 435.175 FM
Uosat F 19 Apr 14:53:36 14:56:28 16° 65° (ENE) 14:59:21 435.120 FM
TMSAT-1 19 Apr 14:56:15 15:01:19 49° 73° (ENE) 15:06:25 436.925 FM
Uribyol 2 19 Apr 15:16:20 15:19:58 19° 265° (W) 15:23:37 436.500 FM
SO-50 19 Apr 15:25:07 15:29:35 85° 298° (WNW) 15:34:06 436.795 FM
AO-7 19 Apr 15:44:11 15:51:57 47° 66° (ENE) 15:59:44 29.400 - 29.500 MHz
OPAL 19 Apr 15:46:51 15:52:04 73° 287° (WNW) 15:57:15 ?
Gurwin Techsat 1B 19 Apr 15:48:16 15:53:04 35° 262° (W) 15:57:53 435.225 FM
ISS 19 Apr 15:54:51 15:57:25 20° 326° (NW) 15:59:58 145.800 FM
JAS-1B 19 Apr 15:58:46 16:07:18 88° 256° (WSW) 16:14:24 435.800 - 435.900 CW/SSB
UOSAT-12 19 Apr 16:10:24 16:12:06 12° 107° (ESE) 16:13:48 437.025 FM, 437.400 FM
Uosat F 19 Apr 16:29:55 16:34:48 51° 260° (W) 16:39:41 435.120 FM
RS-15 19 Apr 16:30:19 16:41:21 87° 63° (ENE) 16:52:44 29.354 - 29.394 USB, Beacon 29.352 USB
TMSAT-1 19 Apr 16:38:12 16:41:27 16° 267° (W) 16:44:43 436.925 FM
Hamsat 19 Apr 17:33:56 17:37:15 23° 71° (ENE) 17:40:35 145.90 MHz
AO-7 19 Apr 17:37:34 17:44:47 33° 261° (W) 17:52:04 29.400 - 29.500 MHz
UOSAT-12 19 Apr 17:47:14 17:51:41 56° 301° (WNW) 17:56:14 437.025 FM, 437.400 FM
JAS-1B 19 Apr 17:54:43 17:58:07 13° 266° (W) 18:01:21 435.800 - 435.900 CW/SSB
STRAND 1 19 Apr 18:26:25 18:29:54 18° 95° (E) 18:33:22 ?
RS-15 19 Apr 18:45:26 18:52:17 19° 259° (W) 18:59:18 29.354 - 29.394 USB, Beacon 29.352 USB
SO-67 19 Apr 18:49:59 18:52:58 27° 73° (ENE) 18:55:58 435.3500 MHz FM
AO-40 19 Apr 18:54:57 19:06:39 17° 202° (SSW) 19:12:00 Beacon 2401.320
Hamsat 19 Apr 19:09:49 19:13:07 22° 265° (W) 19:16:27 145.90 MHz
JAS-2 19 Apr 19:10:07 19:16:11 86° 76° (ENE) 19:21:38 435.800 - 435.900 CW/SSB, 435.910 FM
Saudisat 1A 19 Apr 19:38:09 19:42:00 29° 55° (NE) 19:45:49 436.775 MHz
HO-68 19 Apr 19:55:34 20:00:57 24° 62° (ENE) 20:06:20 435.675 MHz FM
STRAND 1 19 Apr 20:04:27 20:09:12 41° 288° (WNW) 20:13:57 ?
SO-67 19 Apr 20:24:40 20:26:09 12° 267° (W) 20:27:38 435.3500 MHz FM
Oscar 11 19 Apr 20:47:25 20:49:41 14° 67° (ENE) 20:51:58 145.825 FM, Beacon 2401.500 USB
MaSat-1 19 Apr 20:48:02 20:50:45 26° 110° (ESE) 20:53:09 437.345 MHz
ISS 19 Apr 20:51:08 20:52:01 11° 27° (NNE) 20:52:54 145.800 FM
Saudisat 1A 19 Apr 21:18:01 21:21:25 22° 249° (WSW) 21:24:48 436.775 MHz
HO-68 19 Apr 21:41:08 21:48:06 58° 258° (WSW) 21:55:08 435.675 MHz FM
FUNcube-1 19 Apr 22:12:51 22:16:49 41° 74° (ENE) 22:20:44 145.950 - 145.970 MHz USB
Oscar 11 19 Apr 22:21:27 22:25:30 40° 261° (W) 22:29:34 145.825 FM, Beacon 2401.500 USB
ISS 19 Apr 22:25:52 22:29:14 79° 43° (NE) 22:32:34 145.800 FM
Sapphire 19 Apr 23:03:10 23:05:38 13° 103° (ESE) 23:08:06 437.095 MHz 1200 baud AX-25 AFSK
PCSat 19 Apr 23:45:07 23:50:05 39° 109° (ESE) 23:55:05 145.825 MHz
FUNcube-1 19 Apr 23:51:38 23:53:23 12° 267° (W) 23:55:07 145.950 - 145.970 MHz USB
SO-50 20 Apr 00:00:52 00:04:57 29° 55° (NE) 00:09:03 436.795 FM
Sapphire 20 Apr 00:43:05 00:48:26 64° 297° (WNW) 00:53:49 437.095 MHz 1200 baud AX-25 AFSK
Oscar 19 20 Apr 01:09:45 01:12:07 13° 92° (E) 01:14:29 437.125 CW, 437.150 USB
KITSAT 1 20 Apr 01:14:39 01:20:24 22° 103° (ESE) 01:26:10 435.175 FM
Oscar 16 20 Apr 01:17:12 01:20:37 18° 94° (E) 01:24:02 437.025 USB, Beacon 2401.1428
OPAL 20 Apr 01:22:24 01:24:39 13° 62° (ENE) 01:26:55 ?
PCSat 20 Apr 01:29:14 01:33:35 24° 305° (NW) 01:37:58 145.825 MHz
SO-50 20 Apr 01:41:32 01:45:23 26° 249° (WSW) 01:49:17 436.795 FM
Uribyol 2 20 Apr 01:53:09 01:56:55 20° 95° (E) 02:00:40 436.500 FM
UOSAT-12 20 Apr 02:20:41 02:25:09 40° 57° (ENE) 02:29:33 437.025 FM, 437.400 FM
Gurwin Techsat 1B 20 Apr 02:30:46 02:33:01 13° 92° (E) 02:35:16 435.225 FM
AO-27 20 Apr 02:32:40 02:37:42 50° 100° (E) 02:42:42 436.795 MHz FM
ITAMSAT 1 20 Apr 02:43:08 02:48:16 63° 102° (ESE) 02:53:23 435.822 SSB
AO-Echo 20 Apr 02:44:14 02:48:51 50° 100° (E) 02:53:22 ?
Oscar 19 20 Apr 02:46:40 02:51:46 59° 286° (WNW) 02:56:52 437.125 CW, 437.150 USB
Oscar 16 20 Apr 02:55:12 03:00:08 45° 288° (WNW) 03:05:02 437.025 USB, Beacon 2401.1428
OPAL 20 Apr 02:57:59 03:02:55 64° 257° (WSW) 03:07:58 ?
KITSAT 1 20 Apr 03:06:58 03:15:01 68° 299° (WNW) 03:23:08 435.175 FM
TMSAT-1 20 Apr 03:16:40 03:21:07 27° 96° (E) 03:25:34 436.925 FM
Uribyol 2 20 Apr 03:31:41 03:36:28 39° 289° (WNW) 03:41:15 436.500 FM
JAS-1B 20 Apr 03:49:12 03:53:54 26° 98° (E) 03:58:52 435.800 - 435.900 CW/SSB
AO-7 20 Apr 03:51:54 03:57:11 18° 94° (E) 04:02:26 29.400 - 29.500 MHz
UOSAT-12 20 Apr 04:01:47 04:04:57 18° 251° (WSW) 04:08:06 437.025 FM, 437.400 FM
Gurwin Techsat 1B 20 Apr 04:08:06 04:13:20 62° 286° (WNW) 04:18:33 435.225 FM
AO-27 20 Apr 04:13:35 04:16:45 17° 294° (WNW) 04:19:55 436.795 MHz FM
AO-Echo 20 Apr 04:24:48 04:27:08 14° 295° (WNW) 04:29:28 ?
ITAMSAT 1 20 Apr 04:24:49 04:27:10 13° 296° (WNW) 04:29:32 435.822 SSB
Uosat F 20 Apr 04:41:35 04:46:34 68° 102° (ESE) 04:51:31 435.120 FM
RS-15 20 Apr 04:41:58 04:48:16 17° 100° (E) 04:54:25 29.354 - 29.394 USB, Beacon 29.352 USB
TMSAT-1 20 Apr 04:56:24 05:00:57 30° 290° (WNW) 05:05:30 436.925 FM
KITSAT 1 20 Apr 05:07:49 05:12:00 15° 320° (NW) 05:16:12 435.175 FM
STRAND 1 20 Apr 05:38:54 05:42:23 19° 67° (ENE) 05:45:52 ?
JAS-1B 20 Apr 05:39:37 05:44:35 32° 290° (WNW) 05:49:48 435.800 - 435.900 CW/SSB
AO-7 20 Apr 05:42:16 05:50:35 78° 289° (WNW) 05:58:54 29.400 - 29.500 MHz
Uosat F 20 Apr 06:23:04 06:24:43 12° 297° (WNW) 06:26:22 435.120 FM
JAS-2 20 Apr 06:25:46 06:27:16 11° 94° (E) 06:28:48 435.800 - 435.900 CW/SSB, 435.910 FM
PANSAT 20 Apr 06:45:47 06:47:01 11° 157° (SSE) 06:48:15 not established
RS-15 20 Apr 06:47:36 06:59:04 87° 116° (ESE) 07:10:08 29.354 - 29.394 USB, Beacon 29.352 USB
MaSat-1 20 Apr 06:52:23 06:55:21 37° 67° (ENE) 06:58:50 437.345 MHz
Hamsat 20 Apr 06:58:32 07:02:55 84° 102° (ESE) 07:07:17 145.90 MHz
STRAND 1 20 Apr 07:16:23 07:21:13 43° 261° (W) 07:26:04 ?
AO-7 20 Apr 07:38:02 07:42:02 15° 306° (NW) 07:46:03 29.400 - 29.500 MHz
SO-67 20 Apr 07:50:55 07:54:23 60° 100° (E) 07:57:49 435.3500 MHz FM
JAS-2 20 Apr 08:07:08 08:12:37 76° 284° (WNW) 08:18:45 435.800 - 435.900 CW/SSB, 435.910 FM
PANSAT 20 Apr 08:23:22 08:26:42 28° 168° (SSE) 08:30:03 not established
PCSat 20 Apr 08:38:15 08:41:21 15° 50° (NE) 08:44:26 145.825 MHz
RS-15 20 Apr 09:04:00 09:12:49 26° 319° (NW) 09:21:31 29.354 - 29.394 USB, Beacon 29.352 USB
HO-68 20 Apr 09:13:29 09:19:55 35° 98° (E) 09:26:19 435.675 MHz FM
Sapphire 20 Apr 09:35:13 09:40:22 43° 60° (ENE) 09:45:29 437.095 MHz 1200 baud AX-25 AFSK
Saudisat 1A 20 Apr 09:41:46 09:44:58 20° 110° (ESE) 09:48:10 436.775 MHz
PANSAT 20 Apr 10:02:59 10:06:36 38° 181° (S) 10:10:13 not established
FUNcube-1 20 Apr 10:08:19 10:09:31 11° 93° (E) 10:10:43 145.950 - 145.970 MHz USB
Oscar 11 20 Apr 10:12:55 10:17:08 47° 100° (E) 10:21:20 145.825 FM, Beacon 2401.500 USB
PCSat 20 Apr 10:19:52 10:25:16 69° 247° (WSW) 10:30:37 145.825 MHz
HO-68 20 Apr 11:01:02 11:07:31 38° 293° (WNW) 11:14:00 435.675 MHz FM
KITSAT 1 20 Apr 11:05:15 11:12:16 31° 51° (NE) 11:19:12 435.175 FM
Sapphire 20 Apr 11:19:30 11:23:26 21° 254° (WSW) 11:27:21 437.095 MHz 1200 baud AX-25 AFSK
Saudisat 1A 20 Apr 11:20:14 11:24:18 34° 304° (NW) 11:28:23 436.775 MHz
FUNcube-1 20 Apr 11:41:59 11:46:07 49° 285° (WNW) 11:50:20 145.950 - 145.970 MHz USB
PANSAT 20 Apr 11:43:12 11:46:29 26° 193° (SSW) 11:49:45 not established
Oscar 11 20 Apr 11:51:00 11:52:53 13° 293° (WNW) 11:54:45 145.825 FM, Beacon 2401.500 USB
Oscar 19 20 Apr 12:23:20 12:25:46 14° 64° (ENE) 12:28:13 437.125 CW, 437.150 USB
Oscar 16 20 Apr 12:30:47 12:34:08 18° 66° (ENE) 12:37:29 437.025 USB, Beacon 2401.1428
KITSAT 1 20 Apr 13:00:08 13:07:56 54° 249° (WSW) 13:15:41 435.175 FM
Uribyol 2 20 Apr 13:07:31 13:11:18 21° 67° (ENE) 13:15:06 436.500 FM
PANSAT 20 Apr 13:25:51 13:26:08 10° 204° (SSW) 13:26:26 not established
